Regional Weather Roundup
Issued by NWS

Home | Current Version | Previous Version | Text Only | Print | Product List | Glossary On
Versions: 1 2 3 4 5 6 7 8 9 10 11 12 13 14 15 16 17 18 19 20 21 22 23 24 25 26 27 28 29 30 31 32 33 34 35 36 37 38 39 40 41 42 43 44 45 46 47 48 49 50
000
ASUS42 KFFC 130003
RWRGA
WEATHER ROUNDUP FOR GEORGIA
NATIONAL WEATHER SERVICE PEACHTREE CITY GA
800 PM EDT SAT JUL 12 2014

NOTE: "FAIR" INDICATES FEW OR NO CLOUDS BELOW 12,000 FEET WITH NO
SIGNIFICANT WEATHER AND/OR OBSTRUCTIONS TO VISIBILITY.

* = USE WITH CAUTION. THE STATIONS MARKED WITH AN ASTERISK MAY NOT
REPORT WEATHER SUCH AS PRECIPITATION, FOG, OR THUNDER AND ARE NOT
QUALITY CONTROLLED BY NWS.

THE REMARK "TC" DENOTES TEMPERATURE READING IN DEGREES CELSIUS.

GAZ001>058-130100-
NORTH GEORGIA

CITY           SKY/WX    TMP DP  RH WIND       PRES   REMARKS
ATLANTA        PTCLDY    87  65  47 S7        30.13S
6HR MIN TEMP:  83; 6HR MAX TEMP:  90;

ATHENS         CLEAR     88  65  46 CALM      30.13S HX  90
6HR MIN TEMP:  88; 6HR MAX TEMP:  93;

CHAMBLEE       PTCLDY    85  67  54 SE3       30.14R
6HR MIN TEMP:  84; 6HR MAX TEMP:  91;

PEACHTREE CITY CLEAR     88  67  49 E5        30.13S HX  91
6HR MIN TEMP:  84; 6HR MAX TEMP:  91;

ROME           CLEAR     88  69  53 SE5       30.11R HX  92
6HR MIN TEMP:  86; 6HR MAX TEMP:  91;

WEST ATLANTA   MOCLDY    89  66  46 SE7       30.12S HX  91
6HR MIN TEMP:  84; 6HR MAX TEMP:  92;

GAINESVILLE    CLEAR     84  65  52 E6        30.18S
6HR MIN TEMP:  83; 6HR MAX TEMP:  89;

CARTERSVILLE   CLEAR     85  69  58 CALM      30.13R
6HR MIN TEMP:  85; 6HR MAX TEMP:  90;



CITY           SKY/WX    TMP DP  RH WIND       PRES   REMARKS
DALTON*        PTCLDY    86  72  62 CALM      30.13R HX  92
LAWRENCEVILLE* CLEAR     88  63  42 E7        30.15R
KENNESAW*      MOCLDY    84  68  58 CALM      30.15R
$$

GAZ059>098-102>109-130100-
CENTRAL GEORGIA

CITY           SKY/WX    TMP DP  RH WIND       PRES   REMARKS
AUGUSTA-BUSH   PTCLDY    80  70  71 SE5       30.12R
6HR MIN TEMP:  80; 6HR MAX TEMP:  94; 6HR PCP: TRACE;

AUGUSTA-DANIEL CLEAR     83  71  67 SE6       30.14R
6HR MIN TEMP:  83; 6HR MAX TEMP:  96; 6HR PCP:  0.03;

COLUMBUS       CLEAR     89  66  46 E8        30.09S HX  91
6HR MIN TEMP:  86; 6HR MAX TEMP:  92;

MACON          PTCLDY    81  70  69 SE7       30.12S
6HR MIN TEMP:  81; 6HR MAX TEMP:  91;



CITY           SKY/WX    TMP DP  RH WIND       PRES   REMARKS
LAGRANGE*      CLEAR     91  72  53 SE3       30.12S HX  98
SYLVANIA*      PTCLDY    84  73  69 S5        30.14S HX  90
MILLEDGEVILLE* PTCLDY    84  70  61 CALM      30.12R
$$

GAZ099>101-110>166-130100-
SOUTH GEORGIA

CITY           SKY/WX    TMP DP  RH WIND       PRES   REMARKS
SAVANNAH       MOCLDY    83  70  64 S6        30.15R
6HR MIN TEMP:  83; 6HR MAX TEMP:  86;

VALDOSTA       CLOUDY    78  71  79 SW3       30.14F
6HR MIN TEMP:  78; 6HR MAX TEMP:  90; 6HR PCP:  0.45;

ALMA           CLOUDY    77  72  84 S7        30.15R
6HR MIN TEMP:  77; 6HR MAX TEMP:  90; 6HR PCP: TRACE;

ST SIMONS      CLOUDY    78  72  81 E6        30.15R
6HR MIN TEMP:  75; 6HR MAX TEMP:  80; 6HR PCP:  0.05;

ALBANY         MOCLDY    77  71  82 SE21      30.15R
BRUNSWICK      CLOUDY    81  70  69 CALM      30.16R


CITY           SKY/WX    TMP DP  RH WIND       PRES   REMARKS
BAINBRIDGE*    DRIZZLE   81  77  89 CALM      30.13S
MOULTRIE*      TSTM      72  72 100 SW3       30.17S
VIDALIA*         N/A     81  72  74 S6        30.15R
WAYCROSS*      CLOUDY    79  76  91 S5        30.15R
DOUGLAS*       CLOUDY    75  73  94 S3        30.16R
$$



USA.gov is the U.S. government's official web portal to all federal, state and local government web resources and services.